This demonstration page uses our WeatherBlox Daily Observations layout. Learn more.

Left ArrowRight Arrow

Hourly Observations for September 30, 2021

Temp ( °F °C ) Dew Point ( °F °C ) Humidity (%) Winds ( mph kmh ) Pressure ( in mb ) Visibility ( mi km ) Precip ( " mm )
12:51 am 00:51 Clear 63 17.2 60 15.6 90 90 E 5 7 29.80 1009 10 16 N/A
1:51 am 01:51 Clear 63 17.2 60 15.6 90 90 E 5 7 29.80 1009 10 16 N/A
2:51 am 02:51 Cloudy 64 17.8 59 15 84 84 S 6 9 29.80 1009 10 16 N/A
3:30 am 03:30 Cloudy with Thunderstorms 64 17.8 54 12.2 70 70 NW 23 37 29.88 1012 10 16 N/A
3:51 am 03:51 Windy with Storms Likely 58 14.4 53 11.7 84 84 NNW 20 31 29.88 1012 10 16 0.01 0.25
4:07 am 04:07 Cloudy with Nearby Thunderstorms 59 15 53 11.7 81 81 NW 20 31 29.94 1014 10 16 0.01 0.25
4:21 am 04:21 Cloudy with Light Rain 59 15 54 12.2 83 83 NW 20 31 29.94 1014 10 16 0.01 0.25
4:39 am 04:39 Cloudy with Nearby Thunderstorms 58 14.4 54 12.2 87 87 NW 18 30 29.95 1014 9 14 0.01 0.25
4:51 am 04:51 Cloudy with Nearby Thunderstorms 58 14.4 54 12.2 87 87 NW 20 31 29.89 1012 10 16 0.02 0.51
5:02 am 05:02 Cloudy with Light Rain 58 14.4 53 11.7 84 84 NNW 20 31 29.95 1014 10 16 0.01 0.25
5:12 am 05:12 Cloudy with Nearby Thunderstorms 59 15 53 11.7 81 81 NW 21 33 29.96 1015 10 16 0.01 0.25
5:27 am 05:27 Cloudy with Light Rain 58 14.4 52 11.1 81 81 NNW 21 33 29.96 1015 10 16 0.02 0.51
5:51 am 05:51 Cloudy with Light Rain 59 15 52 11.1 78 78 NNW 17 28 29.93 1014 10 16 0.03 0.76
6:51 am 06:51 Cloudy with Light Rain 58 14.4 55 12.8 90 90 ESE 7 11 29.97 1015 9 14 0.05 1.27
7:51 am 07:51 Mostly Sunny 59 15 52 11.1 78 78 ENE 12 19 29.95 1014 10 16 0.02 0.51
8:51 am 08:51 Sunny 60 15.6 55 12.8 84 84 W 5 7 29.97 1015 10 16 N/A
9:51 am 09:51 Mostly Sunny 63 17.2 56 13.3 78 78 NNW 5 7 29.97 1015 10 16 N/A
10:51 am 10:51 Sunny 66 18.9 56 13.3 70 70 ESE 9 15 29.97 1015 10 16 N/A
11:51 am 11:51 Sunny 67 19.4 56 13.3 68 68 SSE 10 17 29.97 1015 10 16 N/A
12:51 pm 12:51 Sunny 70 21.1 55 12.8 59 59 ESE 7 11 29.93 1014 10 16 N/A
1:51 pm 13:51 Sunny 71 21.7 55 12.8 57 57 undefined N/A 29.90 1013 10 16 N/A
2:51 pm 14:51 Sunny 73 22.8 52 11.1 48 48 ESE 8 13 29.88 1012 10 16 N/A
3:51 pm 15:51 Sunny 74 23.3 49 9.4 41 41 SSE 3 6 29.88 1012 10 16 N/A
4:51 pm 16:51 Sunny 74 23.3 50 10 43 43 SSW 3 6 29.88 1012 10 16 N/A
5:51 pm 17:51 Sunny 71 21.7 52 11.1 51 51 SW 7 11 29.89 1012 10 16 N/A
6:51 pm 18:51 Partly Cloudy 66 18.9 58 14.4 75 75 N 3 6 29.92 1013 10 16 N/A
7:51 pm 19:51 Clear 64 17.8 58 14.4 81 81 NE 5 7 29.93 1014 10 16 N/A
8:51 pm 20:51 Mostly Cloudy 64 17.8 58 14.4 81 81 S 7 11 29.97 1015 10 16 N/A
9:51 pm 21:51 Mostly Cloudy 63 17.2 56 13.3 78 78 ESE 7 11 29.97 1015 10 16 N/A
10:51 pm 22:51 Clear 63 17.2 56 13.3 78 78 E 7 11 29.97 1015 10 16 N/A
11:51 pm 23:51 Mostly Cloudy 60 15.6 57 13.9 90 90 ESE 6 9 29.97 1015 10 16 N/A

Powered by AerisWeather